QPF
0.00 0.00 0.00 0.00 0.00 0.00 0.00 0.00 0.02 0.00 0.01 0.09 0.22 0.14 0.05 0.00 0.00 0.00 0.00 0.00 0.00 0.00 0.00 0.00 0.00 0.00 0.00 0.02 0.22 0.24 0.24 0.67 0.81 0.30 0.05 0.00 0.00 0.00 0.00 0.00 0.00 0.00 0.00 0.00
0.00 0.00 0.00 0.00 0.00 0.00 0.00 0.00 0.00 0.00 0.01 0.03 0.13 0.18 0.12 0.01 0.00 0.00 0.00 0.00 0.00 0.00 0.00 0.00 0.00 0.00 0.00 0.00 0.03 0.14 0.22 0.51 0.78 0.65 0.07 0.01 0.00 0.00 0.00 0.00 0.00 0.00 0.00 0.01
0.00 0.00 0.00 0.00 0.03 0.02 0.00 0.00 0.01 0.00 0.01 0.03 0.11 0.12 0.06 0.01 0.00 0.00 0.00 0.00 0.00 0.00 0.00 0.00 0.01 0.01 0.00 0.00 0.01 0.06 0.10 0.25 0.25 0.40 0.25 0.07 0.02 0.00 0.00 0.00 0.00 0.00 0.00 0.01
0.00 0.00 0.00 0.02 0.10 0.16 0.04 0.02 0.07 0.05 0.06 0.03 0.03 0.03 0.01 0.00 0.00 0.00 0.01 0.00 0.00 0.00 0.00 0.00 0.00 0.02 0.01 0.02 0.02 0.05 0.15 0.15 0.29 0.24 0.24 0.06 0.05 0.01 0.01 0.00 0.00 0.01 0.01 0.01
0.00 0.00 0.00 0.02 0.12 0.19 0.12 0.10 0.14 0.13 0.08 0.05 0.02 0.00 0.00 0.00 0.00 0.01 0.01 0.01 0.01 0.01 0.00 0.00 0.00 0.01 0.03 0.03 0.02 0.02 0.04 0.20 0.21 0.17 0.17 0.08 0.07 0.05 0.03 0.01 0.00 0.01 0.01 0.01
0.03 0.01 0.01 0.01 0.00 0.04 0.15 0.11 0.08 0.08 0.03 0.01 0.00 0.00 0.00 0.00 0.01 0.01 0.01 0.01 0.01 0.01 0.00 0.00 0.00 0.00 0.02 0.03 0.02 0.06 0.05 0.07 0.12 0.15 0.17 0.29 0.24 0.11 0.07 0.06 0.04 0.02 0.01 0.01
0.00 0.01 0.01 0.02 0.03 0.13 0.22 0.12 0.05 0.01 0.01 0.00 0.01 0.01 0.01 0.01 0.01 0.01 0.01 0.00 0.00 0.00 0.00 0.01 0.00 0.00 0.01 0.04 0.05 0.08 0.09 0.06 0.05 0.10 0.15 0.17 0.24 0.26 0.22 0.16 0.11 0.09 0.06 0.04
0.06 0.08 0.04 0.03 0.06 0.15 0.19 0.12 0.03 0.00 0.00 0.00 0.00 0.01 0.01 0.01 0.01 0.01 0.00 0.00 0.00 0.00 0.00 0.00 0.00 0.00 0.00 0.01 0.04 0.06 0.08 0.09 0.08 0.05 0.06 0.10 0.15 0.19 0.21 0.24 0.22 0.17 0.14 0.13
0.07 0.07 0.09 0.07 0.09 0.12 0.11 0.05 0.02 0.01 0.00 0.00 0.00 0.01 0.01 0.01 0.01 0.01 0.00 0.00 0.00 0.00 0.00 0.00 0.00 0.00 0.00 0.01 0.01 0.02 0.04 0.05 0.07 0.08 0.06 0.04 0.05 0.07 0.10 0.14 0.17 0.17 0.15 0.14
0.04 0.04 0.06 0.10 0.07 0.04 0.03 0.03 0.02 0.01 0.00 0.00 0.00 0.01 0.01 0.01 0.01 0.00 0.00 0.00 0.00 0.00 0.00 0.01 0.01 0.01 0.01 0.00 0.00 0.01 0.02 0.04 0.05 0.05 0.05 0.05 0.04 0.04 0.05 0.07 0.10 0.13 0.14 0.15
0.01 0.02 0.02 0.02 0.05 0.03 0.03 0.03 0.03 0.01 0.01 0.00 0.00 0.01 0.01 0.01 0.01 0.01 0.00 0.00 0.00 0.00 0.00 0.01 0.01 0.01 0.02 0.01 0.00 0.01 0.02 0.03 0.04 0.04 0.04 0.05 0.05 0.06 0.05 0.06 0.07 0.09 0.12 0.14
0.00 0.01 0.01 0.02 0.02 0.02 0.02 0.03 0.02 0.01 0.01 0.01 0.00 0.00 0.00 0.00 0.01 0.00 0.00 0.00 0.00 0.00 0.00 0.00 0.00 0.00 0.01 0.01 0.01 0.00 0.00 0.01 0.01 0.01 0.01 0.02 0.03 0.03 0.03 0.03 0.02 0.02 0.02 0.03
0.00 0.01 0.00 0.01 0.01 0.01 0.01 0.01 0.00 0.00 0.00 0.00 0.00 0.00 0.00 0.00 0.00 0.00 0.00 0.00 0.00 0.00 0.00 0.00 0.00 0.00 0.00 0.00 0.00 0.00 0.00 0.00 0.00 0.00 0.00 0.00 0.00 0.00 0.01 0.01 0.01 0.01 0.00 0.00
0.00 0.00 0.00 0.01 0.01 0.01 0.00 0.00 0.00 0.00 0.00 0.00 0.00 0.00 0.00 0.00 0.00 0.00 0.00 0.00 0.00 0.00 0.00 0.00 0.00 0.00 0.00 0.00 0.00 0.00 0.00 0.00 0.00 0.00 0.00 0.00 0.00 0.00 0.00 0.00 0.00 0.00 0.01 0.00
0.00 0.00 0.00 0.00 0.00 0.00 0.00 0.00 0.00 0.00 0.00 0.00 0.00 0.00 0.00 0.00 0.00 0.00 0.00 0.00 0.00 0.00 0.00 0.00 0.00 0.00 0.00 0.00 0.00 0.00 0.00 0.00 0.00 0.00 0.00 0.00 0.00 0.00 0.00 0.00 0.00 0.00 0.00 0.00
0.01 0.00 0.00 0.00 0.00 0.00 0.00 0.00 0.00 0.00 0.00 0.00 0.00 0.00 0.00 0.00 0.00 0.00 0.00 0.00 0.00 0.00 0.00 0.00 0.00 0.00 0.00 0.00 0.00 0.00 0.00 0.00 0.00 0.00 0.00 0.00 0.00 0.00 0.00 0.00 0.00 0.00 0.00 0.00
0.02 0.01 0.01 0.01 0.00 0.00 0.00 0.00 0.00 0.00 0.00 0.00 0.00 0.00 0.00 0.00 0.00 0.00 0.00 0.00 0.00 0.00 0.00 0.00 0.00 0.00 0.00 0.00 0.00 0.00 0.00 0.00 0.00 0.00 0.00 0.00 0.00 0.00 0.00 0.00 0.00 0.00 0.00 0.00
0.02 0.02 0.02 0.00 0.00 0.00 0.00 0.00 0.00 0.00 0.00 0.00 0.00 0.00 0.00 0.00 0.00 0.00 0.00 0.00 0.00 0.00 0.00 0.00 0.00 0.00 0.00 0.00 0.00 0.00 0.00 0.00 0.00 0.00 0.00 0.00 0.00 0.00 0.00 0.00 0.00 0.00 0.00 0.00
0.02 0.02 0.00 0.00 0.00 0.00 0.00 0.00 0.00 0.00 0.00 0.00 0.00 0.00 0.00 0.00 0.00 0.00 0.00 0.00 0.00 0.00 0.00 0.00 0.00 0.00 0.00 0.00 0.00 0.00 0.00 0.00 0.00 0.00 0.00 0.00 0.00 0.00 0.00 0.00 0.00 0.00 0.00 0.00
0.00 0.00 0.00 0.00 0.00 0.00 0.00 0.00 0.00 0.00 0.00 0.00 0.00 0.00 0.00 0.00 0.00 0.00 0.00 0.00 0.00 0.00 0.00 0.00 0.00 0.00 0.00 0.00 0.00 0.00 0.00 0.00 0.00 0.00 0.00 0.00 0.00 0.00 0.00 0.00 0.00 0.00 0.00 0.00
0.00 0.00 0.00 0.00 0.00 0.00 0.00 0.00 0.00 0.00 0.00 0.00 0.00 0.00 0.00 0.00 0.00 0.00 0.00 0.00 0.00 0.00 0.00 0.00 0.00 0.00 0.00 0.00 0.00 0.00 0.00 0.00 0.00 0.00 0.00 0.00 0.00 0.00 0.00 0.00 0.00 0.00 0.00 0.00
0.00 0.00 0.00 0.00 0.00 0.00 0.00 0.00 0.00 0.00 0.00 0.00 0.00 0.00 0.00 0.00 0.00 0.00 0.00 0.00 0.00 0.00 0.00 0.00 0.00 0.00 0.00 0.00 0.00 0.00 0.00 0.00 0.00 0.00 0.00 0.00 0.00 0.00 0.00 0.00 0.00 0.00 0.00 0.00
0.00 0.00 0.00 0.00 0.00 0.00 0.00 0.00 0.00 0.00 0.00 0.00 0.00 0.00 0.00 0.00 0.00 0.00 0.00 0.00 0.00 0.00 0.00 0.00 0.00 0.00 0.00 0.00 0.00 0.00 0.00 0.00 0.00 0.00 0.00 0.00 0.00 0.00 0.00 0.00 0.00 0.00 0.00 0.00
0.00 0.00 0.00 0.00 0.00 0.00 0.00 0.00 0.00 0.00 0.00 0.00 0.00 0.00 0.00 0.00 0.00 0.00 0.00 0.00 0.00 0.00 0.00 0.00 0.00 0.00 0.00 0.00 0.00 0.00 0.00 0.00 0.00 0.00 0.00 0.00 0.00 0.00 0.00 0.00 0.00 0.00 0.00 0.00
0.00 0.00 0.00 0.00 0.00 0.00 0.00 0.00 0.00 0.00 0.00 0.00 0.00 0.00 0.00 0.00 0.00 0.00 0.00 0.00 0.00 0.00 0.00 0.00 0.00 0.00 0.00 0.00 0.00 0.00 0.00 0.00 0.00 0.00 0.00 0.00 0.00 0.00 0.00 0.00 0.00 0.00 0.00 0.00
0.00 0.00 0.00 0.00 0.00 0.00 0.00 0.00 0.00 0.00 0.00 0.00 0.00 0.00 0.00 0.00 0.00 0.00 0.00 0.00 0.00 0.00 0.00 0.00 0.00 0.00 0.00 0.00 0.00 0.00 0.00 0.00 0.00 0.00 0.00 0.00 0.00 0.00 0.00 0.00 0.00 0.00 0.00 0.00
0.00 0.00 0.00 0.00 0.00 0.00 0.00 0.00 0.00 0.00 0.00 0.00 0.00 0.00 0.00 0.00 0.00 0.00 0.00 0.00 0.00 0.00 0.00 0.00 0.00 0.00 0.00 0.00 0.00 0.00 0.00 0.00 0.00 0.00 0.00 0.00 0.00 0.00 0.00 0.00 0.00 0.00 0.00 0.00
MSLP
1013.98 1013.81 1013.88 1013.73 1013.36 1012.97 1012.79 1012.20 1011.59 1010.79 1010.24 1010.02 1010.92 1011.55 1011.63 1012.38 1012.57 1013.00 1013.33 1013.51 1013.25 1012.61 1011.77 1010.87 1009.73 1008.72 1007.75 1006.73 1005.77 1005.14 1004.41 1003.68 1003.06 1002.10 1002.83 1002.92 1003.61 1004.42 1005.06 1005.44 1005.81 1006.51 1007.10 1007.53
1014.72 1014.36 1013.95 1013.26 1012.30 1011.84 1011.47 1011.08 1010.67 1010.47 1009.95 1010.71 1011.78 1012.48 1012.53 1013.10 1013.41 1013.75 1014.16 1014.42 1014.19 1013.87 1013.09 1012.04 1011.18 1010.23 1009.35 1008.59 1007.79 1006.71 1006.30 1005.71 1005.04 1003.87 1004.66 1004.42 1004.75 1005.71 1006.24 1006.87 1007.15 1007.42 1008.12 1008.38
1015.14 1014.55 1014.15 1013.30 1012.25 1011.64 1010.12 1009.92 1009.98 1009.99 1009.82 1010.98 1012.57 1013.50 1014.51 1014.50 1014.60 1014.61 1015.01 1015.24 1015.01 1014.50 1013.88 1013.30 1012.49 1011.69 1010.64 1009.71 1008.94 1007.98 1007.50 1006.75 1006.67 1006.81 1005.99 1006.31 1006.48 1007.21 1007.54 1008.01 1008.47 1008.65 1009.14 1009.48
1015.56 1015.16 1014.28 1012.26 1012.33 1011.76 1010.73 1010.65 1010.89 1010.31 1010.98 1011.85 1013.14 1014.59 1015.58 1015.85 1015.85 1015.56 1015.83 1015.88 1015.56 1015.14 1014.66 1014.11 1013.44 1012.58 1011.72 1011.08 1010.42 1009.76 1009.46 1008.92 1008.61 1009.02 1008.12 1007.77 1008.67 1008.54 1008.99 1009.29 1009.85 1010.19 1010.33 1010.38
1015.93 1015.32 1013.41 1012.32 1012.73 1012.75 1012.30 1012.18 1012.08 1011.88 1012.30 1013.03 1013.99 1014.72 1016.06 1016.68 1016.76 1016.65 1016.71 1016.71 1016.42 1015.91 1015.38 1014.73 1014.38 1013.87 1013.20 1012.57 1012.04 1011.46 1011.30 1010.80 1010.47 1010.45 1010.14 1010.29 1010.16 1010.19 1010.28 1010.63 1011.14 1011.69 1011.89 1011.73
1015.63 1015.41 1014.31 1013.87 1013.56 1013.11 1012.92 1013.03 1013.28 1013.30 1013.36 1013.77 1014.72 1015.37 1016.99 1017.29 1017.26 1017.24 1017.30 1017.16 1016.94 1016.66 1016.27 1015.55 1015.31 1015.07 1014.60 1014.31 1013.72 1013.32 1013.08 1012.69 1012.15 1011.67 1011.61 1012.19 1011.46 1011.64 1012.01 1012.05 1012.32 1012.95 1013.17 1013.35
1015.48 1015.37 1014.41 1014.83 1014.06 1013.35 1013.66 1015.22 1014.67 1014.61 1014.95 1015.04 1015.92 1016.98 1017.74 1017.99 1018.00 1018.03 1018.21 1018.04 1017.80 1017.56 1017.25 1016.91 1016.59 1016.28 1016.07 1015.92 1015.41 1015.05 1014.46 1014.31 1013.97 1013.85 1013.50 1013.61 1013.18 1013.11 1013.29 1013.70 1013.17 1014.06 1014.18 1014.55
1015.19 1015.43 1015.63 1015.46 1014.80 1015.15 1015.65 1015.79 1016.11 1016.29 1016.82 1017.12 1017.58 1018.26 1018.83 1019.01 1019.03 1019.09 1019.18 1018.96 1018.60 1018.37 1018.08 1017.80 1017.54 1017.00 1017.03 1016.99 1017.05 1016.27 1015.67 1015.66 1015.71 1015.53 1015.30 1015.06 1015.12 1014.80 1014.79 1014.72 1014.53 1015.21 1015.20 1015.43
1016.03 1016.61 1016.90 1017.21 1017.19 1017.08 1016.61 1016.86 1017.23 1017.34 1018.15 1018.58 1018.86 1019.72 1020.15 1020.24 1020.49 1020.47 1020.27 1020.04 1019.60 1019.29 1019.01 1018.74 1018.47 1018.15 1017.67 1017.89 1017.66 1016.95 1016.60 1016.80 1017.10 1016.93 1016.61 1016.43 1016.10 1016.12 1016.66 1016.49 1016.36 1016.44 1016.58 1016.59
1016.61 1017.40 1017.72 1017.86 1018.14 1018.18 1018.14 1018.29 1018.51 1019.00 1019.49 1019.69 1020.34 1021.02 1021.31 1021.50 1021.70 1021.59 1021.44 1021.20 1020.82 1020.30 1020.15 1019.87 1019.52 1019.05 1018.69 1018.37 1018.25 1017.76 1017.72 1018.00 1018.13 1018.17 1018.08 1017.95 1017.86 1017.73 1017.84 1018.07 1018.12 1017.71 1018.27 1018.46
1017.43 1017.85 1018.22 1018.56 1018.74 1018.99 1019.21 1019.46 1019.93 1020.30 1020.60 1021.16 1021.49 1021.89 1022.08 1022.41 1022.59 1022.71 1022.60 1022.32 1022.03 1021.88 1021.61 1021.04 1020.60 1020.16 1019.78 1019.28 1018.95 1018.91 1018.94 1019.04 1019.45 1019.62 1019.62 1019.66 1019.48 1019.56 1019.57 1019.70 1019.36 1019.23 1019.38 1019.04
1018.26 1018.45 1018.64 1019.21 1019.52 1019.62 1019.90 1020.38 1020.80 1021.11 1021.64 1022.10 1022.46 1022.85 1023.16 1023.32 1023.44 1023.53 1023.61 1023.49 1023.14 1023.00 1022.77 1022.28 1021.74 1021.45 1021.02 1020.56 1019.96 1019.93 1020.11 1020.28 1020.64 1020.85 1020.95 1020.94 1020.60 1020.44 1020.41 1020.53 1020.42 1020.41 1020.08 1019.77
1018.81 1018.98 1019.25 1019.79 1020.11 1020.44 1020.81 1021.34 1021.75 1022.03 1022.30 1022.64 1023.17 1023.56 1023.62 1023.84 1023.92 1023.93 1024.01 1024.10 1024.31 1024.24 1023.95 1023.51 1023.00 1022.75 1022.33 1021.64 1021.24 1020.88 1020.93 1021.07 1021.16 1021.37 1021.56 1021.54 1021.65 1021.53 1021.69 1021.95 1021.72 1021.42 1021.18 1020.96
1018.97 1019.38 1019.79 1020.00 1020.56 1021.05 1021.45 1021.88 1022.31 1022.70 1023.26 1023.69 1024.01 1024.32 1024.43 1024.75 1024.67 1024.70 1024.80 1025.11 1025.09 1025.18 1024.91 1024.60 1024.21 1023.95 1023.59 1022.75 1022.32 1022.07 1021.93 1021.89 1021.99 1022.36 1022.50 1022.65 1022.78 1022.78 1022.86 1023.10 1023.16 1023.15 1022.92 1022.52
1019.23 1019.53 1019.73 1020.25 1020.99 1021.64 1022.12 1022.51 1022.78 1023.31 1023.87 1024.30 1024.59 1024.81 1025.12 1025.58 1025.66 1025.66 1025.69 1025.93 1025.96 1025.98 1026.02 1025.73 1025.36 1024.99 1024.37 1023.69 1023.31 1023.08 1022.95 1023.03 1022.98 1023.11 1023.27 1023.43 1023.65 1023.84 1023.99 1024.10 1024.24 1024.30 1024.34 1024.31
1019.77 1020.08 1020.42 1020.67 1021.28 1022.00 1022.44 1022.94 1023.32 1023.97 1024.50 1024.90 1025.37 1025.74 1026.26 1026.58 1026.46 1026.70 1027.02 1026.98 1027.06 1027.35 1027.29 1026.87 1026.44 1025.93 1025.17 1024.52 1024.08 1023.87 1023.82 1023.72 1023.67 1023.83 1024.02 1024.26 1024.56 1024.73 1025.00 1025.15 1025.21 1025.28 1025.40 1025.55
1020.44 1021.06 1021.31 1021.69 1022.20 1022.80 1023.34 1023.80 1024.27 1024.84 1025.58 1025.93 1026.29 1026.54 1026.91 1027.29 1027.48 1027.86 1028.12 1028.22 1028.28 1028.25 1028.09 1027.72 1027.42 1026.51 1025.84 1025.30 1024.87 1024.69 1024.56 1024.48 1024.44 1024.55 1024.75 1025.05 1025.28 1025.48 1025.78 1026.01 1026.17 1026.39 1026.64 1026.59
1020.83 1021.21 1021.70 1022.37 1023.12 1023.80 1024.43 1024.91 1025.35 1025.96 1026.65 1027.12 1027.58 1027.93 1028.38 1028.67 1028.97 1029.19 1029.09 1029.02 1028.90 1028.77 1028.52 1028.11 1027.49 1026.93 1026.38 1025.92 1025.53 1025.32 1025.20 1025.17 1025.16 1025.29 1025.38 1025.66 1025.89 1026.13 1026.49 1026.73 1027.01 1027.29 1027.50 1027.62
1022.06 1022.39 1022.87 1023.55 1024.20 1024.82 1025.55 1026.33 1027.04 1027.54 1027.98 1028.30 1028.74 1029.48 1029.82 1029.92 1029.87 1029.87 1029.81 1029.74 1029.73 1029.72 1029.16 1028.53 1028.02 1027.56 1027.14 1026.71 1026.29 1026.00 1025.92 1025.91 1025.90 1025.98 1026.08 1026.30 1026.53 1026.74 1027.15 1027.33 1027.68 1028.01 1028.07 1028.35
1023.58 1023.98 1024.49 1025.06 1025.52 1026.22 1027.04 1027.78 1028.08 1028.69 1029.18 1029.48 1029.96 1030.44 1030.71 1030.67 1030.49 1030.36 1030.24 1030.38 1030.03 1029.77 1029.32 1029.01 1028.61 1028.30 1027.96 1027.53 1027.09 1026.87 1026.74 1026.76 1026.76 1026.89 1026.99 1027.21 1027.41 1027.66 1027.78 1027.84 1028.16 1028.54 1028.71 1028.90
1025.09 1025.48 1025.99 1026.51 1027.15 1027.83 1028.20 1028.61 1029.13 1029.90 1029.95 1030.06 1030.53 1031.13 1031.16 1030.80 1030.62 1030.51 1030.57 1030.29 1029.85 1029.55 1029.51 1029.38 1029.23 1029.08 1028.81 1028.46 1028.07 1027.80 1027.71 1027.75 1027.81 1027.85 1028.09 1028.16 1028.30 1028.48 1028.79 1028.61 1028.74 1028.96 1029.20 1029.37
1026.18 1026.69 1027.21 1027.64 1028.13 1028.80 1029.01 1029.18 1029.46 1029.88 1030.22 1030.49 1030.73 1030.89 1030.87 1030.76 1030.47 1030.33 1030.28 1030.17 1029.73 1029.74 1029.78 1029.81 1029.80 1029.91 1029.71 1029.21 1029.01 1028.74 1028.65 1028.59 1028.60 1028.52 1028.60 1028.65 1028.91 1029.13 1029.31 1029.13 1029.35 1029.32 1029.43 1029.58
1026.80 1027.27 1027.76 1028.23 1028.60 1028.99 1029.26 1029.46 1029.70 1029.94 1030.20 1030.34 1030.44 1030.51 1030.48 1030.27 1030.08 1030.22 1029.99 1029.69 1029.74 1029.84 1029.97 1030.16 1030.22 1030.05 1029.99 1030.14 1029.74 1029.57 1029.42 1029.37 1029.41 1029.36 1029.33 1029.31 1029.32 1029.33 1029.36 1029.40 1029.42 1029.49 1029.62 1029.73
1027.07 1027.57 1028.05 1028.41 1028.65 1028.89 1029.26 1029.32 1029.52 1029.68 1029.82 1029.96 1030.03 1030.19 1030.18 1030.04 1029.85 1029.57 1029.58 1029.61 1029.75 1029.92 1030.06 1030.21 1030.32 1030.01 1030.15 1030.42 1030.20 1030.06 1029.95 1029.90 1029.84 1029.80 1029.75 1029.65 1029.62 1029.61 1029.64 1029.69 1029.68 1029.68 1029.81 1029.89
1027.01 1027.46 1027.89 1028.25 1028.46 1028.61 1028.67 1028.94 1029.26 1029.46 1029.60 1029.65 1029.43 1029.24 1029.43 1029.46 1029.64 1029.52 1029.45 1029.61 1029.79 1029.95 1030.07 1030.04 1029.93 1029.96 1030.61 1030.35 1030.22 1030.09 1030.01 1029.97 1029.92 1029.90 1029.79 1029.73 1029.72 1029.74 1029.71 1029.71 1029.68 1029.64 1029.78 1030.08
1026.74 1027.13 1027.52 1027.72 1027.90 1028.11 1028.39 1028.72 1029.20 1029.26 1029.49 1029.63 1029.49 1029.17 1029.07 1029.18 1029.24 1029.38 1029.46 1029.54 1029.73 1029.89 1029.99 1030.11 1030.33 1030.30 1030.05 1029.87 1029.78 1029.73 1029.72 1029.85 1029.88 1029.61 1029.44 1029.35 1029.36 1029.38 1029.48 1029.60 1029.57 1029.17 1029.07 1029.20
1026.56 1026.90 1027.37 1027.70 1027.77 1027.95 1028.31 1028.84 1029.48 1029.81 1029.67 1029.81 1029.89 1029.65 1029.34 1029.09 1029.13 1029.28 1029.41 1029.46 1029.54 1029.61 1029.62 1029.49 1029.25 1029.16 1028.94 1028.88 1028.90 1028.90 1028.81 1028.95 1029.06 1028.82 1028.69 1028.61 1028.61 1028.66 1028.62 1028.75 1028.80 1028.64 1028.55 1028.56
Thickness
5434 5431 5427 5420 5424 5430 5427 5438 5436 5461 5474 5496 5477 5470 5470 5470 5470 5464 5458 5455 5457 5463 5471 5479 5489 5500 5511 5523 5534 5543 5551 5560 5562 5579 5583 5588 5587 5586 5586 5587 5586 5581 5579 5576
5417 5417 5413 5414 5430 5432 5431 5436 5446 5463 5479 5468 5459 5454 5454 5455 5456 5453 5449 5445 5447 5450 5458 5468 5474 5483 5494 5505 5514 5525 5531 5536 5545 5551 5558 5568 5570 5567 5569 5567 5569 5567 5564 5563
5403 5412 5406 5407 5420 5420 5437 5441 5448 5450 5479 5457 5448 5439 5431 5437 5437 5440 5438 5436 5438 5443 5448 5454 5461 5468 5479 5491 5501 5513 5521 5523 5530 5534 5541 5547 5551 5550 5551 5552 5552 5552 5551 5549
5381 5396 5381 5427 5409 5408 5425 5421 5424 5448 5445 5447 5433 5422 5417 5419 5424 5428 5429 5429 5432 5436 5440 5444 5451 5458 5467 5474 5482 5492 5499 5511 5515 5513 5521 5526 5527 5534 5534 5535 5533 5534 5535 5537
5360 5376 5414 5427 5404 5400 5408 5413 5411 5428 5432 5427 5422 5423 5411 5411 5414 5415 5419 5419 5421 5426 5432 5437 5440 5445 5451 5457 5465 5472 5478 5485 5494 5496 5501 5502 5510 5513 5516 5516 5515 5513 5514 5518
5383 5362 5381 5390 5393 5399 5401 5421 5403 5413 5420 5431 5423 5442 5405 5405 5410 5411 5412 5413 5415 5418 5422 5428 5430 5432 5435 5437 5444 5451 5456 5463 5472 5479 5484 5481 5492 5494 5495 5497 5497 5495 5496 5496
5382 5384 5399 5378 5386 5393 5418 5401 5391 5398 5402 5411 5408 5400 5397 5399 5403 5403 5402 5404 5404 5407 5410 5413 5416 5418 5420 5421 5425 5431 5439 5444 5450 5455 5460 5461 5468 5470 5473 5474 5482 5477 5478 5478
5401 5400 5403 5375 5388 5390 5386 5381 5381 5386 5384 5388 5390 5387 5384 5386 5390 5391 5389 5392 5395 5398 5400 5404 5406 5410 5410 5410 5410 5417 5423 5424 5426 5431 5437 5441 5444 5449 5452 5456 5458 5456 5459 5459
5379 5373 5367 5362 5363 5365 5374 5376 5377 5380 5376 5376 5376 5370 5369 5373 5371 5374 5377 5381 5385 5388 5390 5392 5394 5396 5400 5399 5401 5408 5411 5408 5407 5410 5415 5419 5425 5428 5426 5429 5432 5434 5434 5435
5377 5365 5360 5361 5356 5359 5361 5361 5364 5362 5363 5366 5361 5357 5357 5357 5358 5360 5363 5367 5371 5375 5376 5378 5380 5385 5388 5391 5391 5396 5396 5392 5392 5392 5393 5396 5399 5401 5402 5402 5402 5409 5407 5406
5368 5364 5359 5357 5357 5355 5354 5354 5354 5355 5358 5355 5353 5351 5354 5351 5349 5347 5347 5351 5355 5357 5359 5364 5367 5370 5373 5377 5380 5381 5380 5379 5375 5373 5373 5373 5375 5375 5375 5374 5379 5383 5384 5388
5359 5359 5358 5353 5351 5354 5353 5352 5351 5351 5348 5345 5343 5339 5337 5338 5338 5337 5336 5337 5339 5341 5343 5348 5353 5354 5357 5360 5365 5366 5365 5362 5358 5356 5355 5354 5359 5360 5360 5359 5361 5360 5364 5367
5351 5353 5354 5349 5349 5347 5345 5342 5341 5341 5343 5341 5337 5334 5334 5332 5331 5332 5330 5330 5327 5327 5329 5331 5335 5337 5339 5345 5348 5351 5352 5351 5349 5347 5345 5344 5342 5344 5342 5339 5341 5344 5346 5347
5355 5352 5350 5350 5347 5345 5343 5342 5341 5339 5334 5332 5330 5328 5329 5325 5325 5325 5324 5321 5320 5317 5318 5320 5321 5322 5324 5330 5332 5334 5334 5335 5334 5331 5329 5327 5325 5325 5324 5322 5321 5321 5323 5326
5353 5352 5350 5349 5344 5339 5337 5336 5336 5333 5330 5326 5324 5323 5321 5314 5314 5315 5315 5312 5311 5309 5306 5307 5308 5309 5312 5316 5318 5319 5319 5317 5316 5315 5313 5311 5309 5307 5305 5304 5302 5302 5301 5301
5346 5346 5346 5347 5345 5338 5335 5333 5331 5327 5324 5321 5317 5313 5307 5304 5306 5303 5300 5299 5298 5293 5292 5291 5294 5295 5298 5301 5303 5303 5302 5302 5301 5299 5297 5294 5291 5289 5286 5285 5284 5283 5282 5280
5335 5332 5333 5333 5333 5330 5327 5325 5323 5321 5316 5312 5308 5305 5302 5297 5295 5290 5284 5281 5277 5275 5274 5275 5275 5280 5283 5285 5287 5286 5285 5284 5283 5281 5279 5275 5272 5270 5268 5266 5265 5262 5259 5259
5326 5328 5329 5327 5323 5320 5318 5317 5314 5310 5303 5299 5292 5287 5283 5280 5275 5272 5267 5265 5266 5266 5264 5263 5265 5266 5267 5268 5270 5269 5267 5265 5263 5260 5258 5255 5253 5251 5247 5246 5244 5241 5238 5237
5322 5322 5322 5319 5316 5313 5309 5304 5297 5292 5286 5282 5280 5271 5263 5260 5259 5256 5255 5251 5249 5249 5250 5250 5252 5251 5250 5250 5250 5248 5246 5243 5241 5239 5236 5232 5229 5227 5223 5221 5218 5216 5216 5214
5311 5310 5308 5306 5303 5301 5294 5286 5285 5279 5271 5269 5262 5259 5255 5250 5245 5244 5242 5241 5239 5237 5235 5234 5233 5231 5229 5228 5226 5224 5220 5216 5214 5210 5208 5205 5201 5198 5199 5198 5196 5192 5190 5189
5297 5296 5292 5289 5282 5280 5277 5272 5272 5267 5261 5257 5257 5248 5244 5240 5236 5232 5233 5231 5227 5224 5219 5215 5211 5206 5203 5200 5197 5192 5190 5187 5184 5181 5177 5176 5173 5172 5170 5170 5169 5166 5163 5162
5281 5282 5279 5278 5276 5270 5266 5265 5265 5257 5254 5249 5242 5236 5234 5234 5228 5224 5218 5216 5212 5205 5198 5192 5186 5180 5176 5173 5169 5164 5162 5159 5157 5157 5155 5153 5150 5147 5145 5145 5143 5144 5143 5141
5280 5278 5274 5272 5271 5267 5261 5259 5255 5251 5246 5240 5237 5232 5228 5226 5221 5212 5205 5203 5195 5186 5179 5170 5162 5157 5151 5145 5140 5135 5131 5129 5127 5126 5125 5124 5125 5125 5124 5124 5123 5122 5121 5121
5278 5277 5272 5268 5267 5267 5265 5260 5255 5251 5239 5236 5230 5223 5220 5212 5204 5203 5195 5186 5177 5166 5156 5149 5141 5134 5126 5119 5113 5108 5104 5101 5099 5097 5097 5098 5097 5098 5098 5098 5098 5098 5098 5099
5280 5275 5271 5267 5268 5263 5262 5257 5250 5245 5239 5234 5227 5221 5211 5204 5192 5186 5177 5166 5156 5146 5136 5128 5119 5111 5103 5097 5092 5088 5085 5083 5081 5078 5077 5076 5075 5075 5075 5075 5075 5076 5076 5077
5280 5275 5270 5268 5265 5260 5256 5250 5241 5234 5228 5219 5212 5206 5198 5189 5181 5171 5159 5148 5136 5125 5113 5106 5097 5091 5085 5080 5077 5074 5071 5069 5067 5066 5064 5063 5061 5060 5059 5059 5059 5060 5060 5060
5277 5273 5267 5262 5259 5254 5248 5240 5227 5219 5211 5201 5194 5187 5180 5171 5162 5151 5139 5127 5115 5105 5095 5088 5082 5077 5073 5070 5066 5063 5060 5057 5055 5054 5053 5051 5050 5049 5048 5047 5047 5047 5047 5046